Date String (YYYY-MM-DD hh:mm:ss) UTC,Instrument flags,absolute air pressure of the measurement (hPa),sample flow rate (lpm),inlet stack bypass flow (lpm),air temperature of the measurement (°C),ambient temperature measured by the external sensor (°C),aerosol sample conditioner tube jacket temperature (°C),OPC LED temperature (°C),internal box temperature (°C),relative humidity of the measurement (%),span deviation,mass concentration of particles derived from Lorenz-Mie calculation of OPC scattering (μg/m³),mass concentration of particles derived from Lorenz-Mie calculation of OPC scattering (μg/m³),mass concentration of particles derived from Lorenz-Mie calculation of OPC scattering (μg/m³)
DateTimeUTC,F1_M11,P_M11,Q1_M11,Q2_M11,T1_M11,T2_M11,T3_M11,T4_M11,T5_M11,U1_M11,ZSPAN_M11,X0_M11,X2_M11,X1_M11
2023-08-05 09:00:00,SystemResetWarning,0834.0,5.00,000.00,029.3,026.3,000.0,038.0,030.7,25.8,0000.0,0009.18,0004.27,0003.78
2023-08-05 09:01:00,SystemResetWarning,0834.0,5.00,000.00,029.3,026.7,000.0,038.0,030.8,25.9,0000.0,0009.12,0004.27,0003.80
2023-08-05 09:02:00,SystemResetWarning,0834.0,5.00,000.00,029.3,027.0,000.0,038.0,030.9,26.0,0000.0,0008.77,0004.30,0003.84
2023-08-05 09:03:00,SystemResetWarning,0834.0,5.00,000.00,029.3,027.2,000.0,038.0,030.9,25.8,0000.0,0008.85,0004.36,0003.89
2023-08-05 09:04:00,SystemResetWarning,0834.0,5.00,000.00,029.3,027.4,000.0,038.0,030.9,25.9,0000.0,0009.73,0004.40,0003.93
2023-08-05 09:05:00,SystemResetWarning,0834.0,5.00,000.00,029.4,027.6,000.0,038.0,031.0,26.0,0000.0,0009.89,0004.46,0003.98
2023-08-05 09:06:00,SystemResetWarning,0834.0,5.01,000.00,029.4,027.7,000.0,038.0,031.0,25.7,0000.0,0009.60,0004.49,0003.99
2023-08-05 09:07:00,SystemResetWarning,0834.0,5.01,000.00,029.4,027.9,000.0,038.0,031.0,25.7,0000.0,0009.41,0004.47,0003.98
2023-08-05 09:08:00,SystemResetWarning,0834.0,5.00,000.00,029.4,028.0,000.0,038.0,031.0,25.6,0000.0,0009.15,0004.49,0004.00
2023-08-05 09:09:00,SystemResetWarning,0834.0,5.00,000.00,029.4,028.0,000.0,038.0,031.1,25.6,0000.0,0009.75,0004.54,0004.02
2023-08-05 09:10:00,SystemResetWarning,0834.0,5.00,000.00,029.5,028.1,000.0,038.0,031.1,25.5,0000.0,0009.45,0004.56,0004.04
2023-08-05 09:11:00,SystemResetWarning,0834.0,4.99,000.00,029.5,028.2,000.0,038.1,031.1,25.4,0000.0,0009.24,0004.55,0004.04
2023-08-05 09:12:00,SystemResetWarning,0834.0,5.00,000.00,029.5,028.2,000.0,038.1,031.1,25.4,0000.0,0009.26,0004.55,0004.04
2023-08-05 09:13:00,SystemResetWarning,0834.0,5.00,000.00,029.5,028.3,000.0,038.1,031.2,25.3,0000.0,0009.35,0004.54,0004.03
2023-08-05 09:14:00,SystemResetWarning,0834.0,5.00,000.00,029.6,028.3,000.0,038.1,031.2,25.2,0000.0,0009.62,0004.54,0004.01
2023-08-05 09:15:00,SystemResetWarning,0834.0,5.00,000.00,029.6,028.3,000.0,038.1,031.2,25.2,0000.0,0009.14,0004.50,0003.98
2023-08-05 09:16:00,SystemResetWarning,0834.0,5.00,000.00,029.6,028.4,000.0,038.1,031.2,25.1,0000.0,0009.04,0004.44,0003.94
2023-08-05 09:17:00,SystemResetWarning,0834.0,5.00,000.00,029.6,028.4,000.0,038.2,031.2,24.9,0000.0,0008.89,0004.41,0003.93
2023-08-05 09:18:00,SystemResetWarning,0834.0,5.00,000.00,029.6,028.4,000.0,038.2,031.3,24.8,0000.0,0008.96,0004.44,0003.93
2023-08-05 09:19:00,SystemResetWarning,0834.0,5.00,000.00,029.7,028.4,000.0,038.2,031.3,24.8,0000.0,0009.09,0004.45,0003.92
2023-08-05 09:20:00,SystemResetWarning,0834.0,5.00,000.00,029.7,028.4,000.0,038.2,031.3,24.6,0000.0,0008.79,0004.43,0003.91
2023-08-05 09:21:00,SystemResetWarning,0834.0,5.00,000.00,029.7,028.5,000.0,038.2,031.3,24.8,0000.0,0008.68,0004.43,0003.91
2023-08-05 09:22:00,SystemResetWarning,0834.0,5.00,000.00,029.7,028.5,000.0,038.2,031.3,24.8,0000.0,0008.81,0004.44,0003.92
2023-08-05 09:23:00,SystemResetWarning,0834.0,5.00,000.00,029.7,028.5,000.0,038.3,031.4,24.8,0000.0,0009.03,0004.47,0003.93
2023-08-05 09:24:00,SystemResetWarning,0834.0,5.01,000.00,029.8,028.5,000.0,038.3,031.4,24.8,0000.0,0008.98,0004.46,0003.93
2023-08-05 09:25:00,SystemResetWarning,0834.0,5.00,000.00,029.8,028.5,000.0,038.3,031.4,24.9,0000.0,0008.99,0004.43,0003.92
2023-08-05 09:26:00,SystemResetWarning,0834.0,5.01,000.00,029.8,028.5,000.0,038.3,031.4,24.9,0000.0,0008.74,0004.42,0003.92
2023-08-05 09:27:00,SystemResetWarning,0834.0,5.00,000.00,029.8,028.6,000.0,038.3,031.4,24.8,0000.0,0009.31,0004.43,0003.94
2023-08-05 09:28:00,SystemResetWarning,0834.0,5.00,000.00,029.8,028.5,000.0,038.3,031.4,24.8,0000.0,0009.48,0004.44,0003.94
2023-08-05 09:29:00,SystemResetWarning,0834.0,4.99,000.00,029.8,027.1,000.0,038.2,031.3,24.9,0000.0,0009.67,0004.46,0003.94
2023-08-05 09:30:00,SystemResetWarning,0834.0,5.02,000.00,029.7,025.5,000.0,038.1,031.0,24.9,0000.0,0009.59,0004.44,0003.93
2023-08-05 09:31:00,SystemResetWarning,0834.0,5.01,000.00,029.7,025.2,000.0,038.0,030.7,25.0,0000.0,0009.15,0004.43,0003.92
2023-08-05 09:32:00,SystemResetWarning,0834.0,5.00,000.00,029.5,025.5,000.0,038.1,030.6,25.2,0000.0,0009.16,0004.43,0003.90
2023-08-05 09:33:00,SystemResetWarning,0834.0,5.00,000.00,029.4,025.9,000.0,038.1,030.7,25.5,0000.0,0009.00,0004.40,0003.88
2023-08-05 09:34:00,SystemResetWarning,0834.0,5.00,000.00,029.4,026.3,000.0,038.1,030.8,25.5,0000.0,0008.91,0004.37,0003.86
2023-08-05 09:35:00,SystemResetWarning,0834.1,5.00,000.00,029.4,026.6,000.0,038.1,030.8,25.6,0000.0,0009.33,0004.39,0003.85
2023-08-05 09:36:00,SystemResetWarning,0834.1,5.00,000.00,029.4,026.9,000.0,038.1,030.9,25.7,0000.0,0009.58,0004.40,0003.85
2023-08-05 09:37:00,SystemResetWarning,0834.1,5.00,000.00,029.4,027.2,000.0,038.1,030.9,25.8,0000.0,0009.48,0004.39,0003.84
2023-08-05 09:38:00,SystemResetWarning,0834.1,5.01,000.00,029.4,027.4,000.0,038.1,030.9,25.7,0000.0,0008.94,0004.35,0003.82
2023-08-05 09:39:00,SystemResetWarning,0834.1,4.99,000.00,029.4,027.6,000.0,038.1,031.0,25.7,0000.0,0008.69,0004.30,0003.80
2023-08-05 09:40:00,SystemResetWarning,0834.1,5.00,000.00,029.4,027.7,000.0,038.1,031.0,25.7,0000.0,0008.54,0004.25,0003.78
2023-08-05 09:41:00,SystemResetWarning,0834.1,5.00,000.00,029.4,027.8,000.0,038.1,031.0,25.7,0000.0,0008.42,0004.22,0003.77
2023-08-05 09:42:00,SystemResetWarning,0834.1,5.00,000.00,029.4,027.9,000.0,038.1,031.0,25.7,0000.0,0008.40,0004.22,0003.77
2023-08-05 09:43:00,SystemResetWarning,0834.1,5.00,000.00,029.5,028.0,000.0,038.1,031.1,25.7,0000.0,0008.44,0004.23,0003.77
2023-08-05 09:44:00,SystemResetWarning,0834.1,5.00,000.00,029.5,028.1,000.0,038.1,031.1,25.8,0000.0,0008.49,0004.25,0003.77
2023-08-05 09:45:00,SystemResetWarning,0834.1,5.00,000.00,029.5,028.1,000.0,038.1,031.1,25.8,0000.0,0008.66,0004.24,0003.77
2023-08-05 09:46:00,SystemResetWarning,0834.1,5.00,000.00,029.5,028.2,000.0,038.1,031.1,25.9,0000.0,0008.72,0004.24,0003.77
2023-08-05 09:47:00,SystemResetWarning,0834.1,5.00,000.00,029.5,028.2,000.0,038.1,031.1,25.8,0000.0,0008.17,0004.24,0003.77
2023-08-05 09:48:00,SystemResetWarning,0834.1,5.00,000.00,029.6,028.2,000.0,038.1,031.2,25.8,0000.0,0008.04,0004.24,0003.78
2023-08-05 09:49:00,SystemResetWarning,0834.1,5.00,000.00,029.6,028.3,000.0,038.2,031.2,25.8,0000.0,0008.09,0004.28,0003.79
2023-08-05 09:50:00,SystemResetWarning,0834.1,5.01,000.00,029.6,028.3,000.0,038.2,031.2,25.8,0000.0,0008.15,0004.30,0003.80
2023-08-05 09:51:00,SystemResetWarning,0834.1,5.00,000.00,029.6,028.3,000.0,038.2,031.2,25.8,0000.0,0008.23,0004.36,0003.82
2023-08-05 09:52:00,SystemResetWarning,0834.1,5.00,000.00,029.6,028.4,000.0,038.2,031.2,25.8,0000.0,0008.34,0004.42,0003.83
2023-08-05 09:53:00,SystemResetWarning,0834.1,4.98,000.00,029.7,028.4,000.0,038.2,031.2,25.8,0000.0,0008.42,0004.41,0003.83
2023-08-05 09:54:00,SystemResetWarning,0834.1,5.00,000.00,029.7,028.4,000.0,038.2,031.3,25.7,0000.0,0008.43,0004.40,0003.84
2023-08-05 09:55:00,SystemResetWarning,0834.1,5.00,000.00,029.7,028.5,000.0,038.2,031.3,25.7,0000.0,0008.53,0004.40,0003.85
2023-08-05 09:56:00,SystemResetWarning,0834.1,5.00,000.00,029.7,028.5,000.0,038.3,031.3,25.6,0000.0,0008.50,0004.40,0003.86
2023-08-05 09:57:00,SystemResetWarning,0834.2,5.00,000.00,029.7,028.5,000.0,038.3,031.3,25.6,0000.0,0007.82,0004.40,0003.89
2023-08-05 09:58:00,SystemResetWarning,0834.1,5.00,000.00,029.7,028.5,000.0,038.3,031.4,25.6,0000.0,0008.53,0004.43,0003.91
2023-08-05 09:59:00,SystemResetWarning,0834.1,4.99,000.00,029.8,028.5,000.0,038.3,031.4,25.6,0000.0,0009.09,0004.47,0003.93
